This is the latest recevied weather packets stored in our database for station/object KR4KUV. If no packets are shown the sender has not sent any weather packets the latest 10 day(s).
| Time | Temp. | Humidity | Pressure | Rain* | Wind** | Luminosity | Snow |
|---|---|---|---|---|---|---|---|
| 1777645902 | 16.11° C | 51% | 1017.2 hPa | 0 mm | - | 499 W/m² | - |
| 1777645598 | 15.56° C | 51% | 1017.2 hPa | 0 mm | - | 469 W/m² | - |
| 1777645289 | 15.56° C | 50% | 1017.2 hPa | 0 mm | - | 424 W/m² | - |
| 1777644985 | 15° C | 52% | 1017.4 hPa | 0 mm | - | 550 W/m² | - |
| 1777644683 | 14.44° C | 55% | 1017.6 hPa | 0 mm | - | 286 W/m² | - |
| 1777644379 | 14.44° C | 55% | 1017.6 hPa | 0 mm | - | 198 W/m² | - |
| 1777644076 | 13.89° C | 55% | 1017.4 hPa | 0 mm | - | 221 W/m² | - |
| 1777643772 | 13.89° C | 57% | 1017.4 hPa | 0 mm | - | 147 W/m² | - |
| 1777643166 | 13.89° C | 54% | 1017.3 hPa | 0 mm | - | 178 W/m² | - |
| 1777642863 | 13.89° C | 54% | 1017.2 hPa | 0 mm | - | 163 W/m² | - |
| 1777642560 | 13.89° C | 55% | 1017.3 hPa | 0 mm | - | 195 W/m² | - |
| 1777642256 | 13.33° C | 56% | 1017 hPa | 0 mm | - | 183 W/m² | - |
| 1777641954 | 13.33° C | 58% | 1017.3 hPa | 0 mm | - | 148 W/m² | - |
| 1777641649 | 13.33° C | 58% | 1017.2 hPa | 0 mm | - | 126 W/m² | - |
| 1777641344 | 13.33° C | 57% | 1017.3 hPa | 0 mm | - | 126 W/m² | - |
| 1777639524 | 12.78° C | 60% | 1017.3 hPa | 0 mm | - | 146 W/m² | - |
| 1777638607 | 12.78° C | 60% | 1017.3 hPa | 0 mm | - | 84 W/m² | - |
| 1777638000 | 12.78° C | 60% | 1017.2 hPa | 0 mm | - | 89 W/m² | - |
| 1777637090 | 12.22° C | 60% | 1017 hPa | 0 mm | - | 79 W/m² | - |
| 1777636785 | 12.22° C | 60% | 1017 hPa | 0 mm | - | 47 W/m² | - |
| 1777636179 | 12.22° C | 60% | 1017 hPa | 0 mm | - | 54 W/m² | - |
| 1777635873 | 12.22° C | 59% | 1016.8 hPa | 0 mm | - | 51 W/m² | - |
| 1777635570 | 12.22° C | 58% | 1016.9 hPa | 0 mm | - | 38 W/m² | - |
| 1777635267 | 12.22° C | 59% | 1016.9 hPa | 0 mm | - | 34 W/m² | - |
| 1777634963 | 12.22° C | 59% | 1016.8 hPa | 0 mm | - | 26 W/m² | - |
* Rain latest hour (hover to see other rain measurements)
** Current wind speed in m/s (hover to see current wind gust speed)